When you browse on this site, cookies collect data to enhance your experience and personalize the content and advertising you see.
Visit our Privacy Policy to learn more. By continuing to use the site, you agree to this use of cookies and data.
  • In Hungary
  • List of Countries
  • For 7 days
  • Water Temperature
  • Satellite Maps
  • Weather Map
  • News
  • Weather Widgets
  • user-avatar
    Login

    Hourly Weather Novaya Berezovka

    Today, 24 January, Thursday

    Time Temperature Precipitation Wind Pressure Humidity
    00:00 -17°C° 0 mm 2 mps 741 mmHg 97%
    01:00 -18°C° 0 mm 2 mps 741 mmHg 97%
    02:00 -18°C° 0 mm 2 mps 741 mmHg 97%
    03:00 -18°C° 0 mm 2 mps 740 mmHg 97%
    04:00 -18°C° 0 mm 2 mps 740 mmHg 97%
    05:00 -19°C° 0 mm 3 mps 740 mmHg 97%
    06:00 -19°C° 0 mm 3 mps 740 mmHg 97%
    07:00 -18°C° 0 mm 3 mps 740 mmHg 97%
    08:00 -17°C° 0 mm 2 mps 740 mmHg 97%
    09:00 -16°C° 0 mm 2 mps 740 mmHg 96%
    10:00 -15°C° 0 mm 2 mps 740 mmHg 95%
    11:00 -14°C° 0 mm 2 mps 741 mmHg 94%
    12:00 -14°C° 0 mm 2 mps 741 mmHg 94%
    13:00 -13°C° 0 mm 2 mps 741 mmHg 93%
    14:00 -13°C° 0 mm 2 mps 741 mmHg 93%
    15:00 -14°C° 0 mm 2 mps 741 mmHg 93%
    16:00 -15°C° 0 mm 2 mps 742 mmHg 92%
    17:00 -16°C° 0 mm 2 mps 742 mmHg 91%
    18:00 -17°C° 0 mm 2 mps 742 mmHg 92%
    19:00 -17°C° 0 mm 2 mps 743 mmHg 93%
    20:00 -17°C° 0 mm 2 mps 743 mmHg 94%
    21:00 -16°C° 0 mm 2 mps 744 mmHg 94%
    22:00 -15°C° 0 mm 2 mps 744 mmHg 95%
    23:00 -14°C° 0 mm 2 mps 745 mmHg 96%

    Tomorrow, 25 January, Friday

    Time Temperature Precipitation Wind Pressure Humidity
    00:00 -15°C° 0 mm 2 mps 745 mmHg 96%
    01:00 -16°C° 0 mm 2 mps 745 mmHg 96%
    02:00 -17°C° 0 mm 2 mps 746 mmHg 96%
    03:00 -18°C° 0 mm 2 mps 746 mmHg 97%
    04:00 -18°C° 0 mm 2 mps 746 mmHg 97%
    05:00 -19°C° 0 mm 2 mps 747 mmHg 97%
    06:00 -19°C° 0 mm 2 mps 747 mmHg 96%
    07:00 -20°C° 0 mm 2 mps 747 mmHg 95%
    08:00 -20°C° 0 mm 2 mps 748 mmHg 95%
    09:00 -19°C° 0 mm 2 mps 748 mmHg 92%
    10:00 -17°C° 0 mm 2 mps 748 mmHg 89%
    11:00 -16°C° 0 mm 2 mps 748 mmHg 87%
    12:00 -15°C° 0 mm 2 mps 748 mmHg 87%
    13:00 -15°C° 0 mm 2 mps 748 mmHg 88%
    14:00 -14°C° 0 mm 2 mps 748 mmHg 88%
    15:00 -15°C° 0 mm 2 mps 748 mmHg 89%
    16:00 -16°C° 0 mm 2 mps 748 mmHg 90%
    17:00 -17°C° 0 mm 2 mps 748 mmHg 91%
    18:00 -18°C° 0 mm 3 mps 748 mmHg 90%
    19:00 -19°C° 0 mm 3 mps 747 mmHg 89%
    20:00 -19°C° 0 mm 3 mps 747 mmHg 88%
    21:00 -19°C° 0 mm 3 mps 747 mmHg 88%
    22:00 -20°C° 0 mm 4 mps 746 mmHg 88%
    23:00 -20°C° 0 mm 4 mps 746 mmHg 87%

    Day after tomorrow, 26 January, Saturday

    Time Temperature Precipitation Wind Pressure Humidity
    00:00 -19°C° 0 mm 4 mps 745 mmHg 86%
    01:00 -19°C° 0 mm 4 mps 745 mmHg 86%
    02:00 -17°C° 0 mm 3 mps 744 mmHg 85%
    03:00 -18°C° 0 mm 4 mps 743 mmHg 85%
    04:00 -18°C° 0 mm 4 mps 742 mmHg 85%
    05:00 -18°C° 0 mm 4 mps 741 mmHg 86%
    06:00 -18°C° 0.4 mm 4 mps 740 mmHg 89%
    07:00 -18°C° 0.4 mm 4 mps 739 mmHg 92%
    08:00 -18°C° 0.4 mm 4 mps 739 mmHg 95%
    09:00 -17°C° 0.5 mm 4 mps 738 mmHg 95%
    10:00 -17°C° 0.5 mm 4 mps 737 mmHg 95%
    11:00 -15°C° 0.5 mm 3 mps 737 mmHg 95%
    12:00 -15°C° 0.6 mm 3 mps 736 mmHg 95%
    13:00 -14°C° 0.6 mm 3 mps 735 mmHg 95%
    14:00 -13°C° 0.6 mm 3 mps 735 mmHg 95%
    15:00 -13°C° 0.3 mm 3 mps 734 mmHg 95%
    16:00 -12°C° 0.3 mm 3 mps 734 mmHg 95%
    17:00 -12°C° 0.3 mm 3 mps 733 mmHg 95%
    18:00 -9°C° 0.3 mm 2 mps 732 mmHg 96%
    19:00 -9°C° 0.3 mm 2 mps 732 mmHg 96%
    20:00 -8°C° 0.3 mm 2 mps 731 mmHg 96%
    21:00 -8°C° 0.3 mm 2 mps 731 mmHg 96%
    22:00 -8°C° 0.3 mm 2 mps 731 mmHg 97%
    23:00 -6°C° 0.3 mm 1 mps 730 mmHg 97%

    27 January, Sunday

    Time Temperature Precipitation Wind Pressure Humidity
    00:00 -6°C° 0.3 mm 1 mps 730 mmHg 97%
    01:00 -6°C° 0.3 mm 1 mps 730 mmHg 97%
    02:00 -6°C° 0.3 mm 1 mps 729 mmHg 98%
    03:00 -7°C° 0.2 mm 1 mps 729 mmHg 97%
    04:00 -9°C° 0.2 mm 2 mps 729 mmHg 97%
    05:00 -9°C° 0.2 mm 2 mps 728 mmHg 97%
    06:00 -10°C° 0.2 mm 2 mps 729 mmHg 97%
    07:00 -12°C° 0.2 mm 2 mps 729 mmHg 96%
    08:00 -13°C° 0.2 mm 2 mps 729 mmHg 96%
    09:00 -12°C° 0.1 mm 2 mps 729 mmHg 96%
    10:00 -13°C° 0.1 mm 3 mps 729 mmHg 95%
    11:00 -13°C° 0.1 mm 3 mps 729 mmHg 95%
    12:00 -13°C° 0 mm 3 mps 729 mmHg 94%
    13:00 -13°C° 0 mm 3 mps 729 mmHg 94%
    14:00 -13°C° 0 mm 3 mps 729 mmHg 94%
    15:00 -14°C° 0 mm 3 mps 730 mmHg 94%
    16:00 -14°C° 0 mm 3 mps 730 mmHg 94%
    17:00 -15°C° 0 mm 3 mps 731 mmHg 95%
    18:00 -16°C° 0 mm 3 mps 731 mmHg 95%
    19:00 -16°C° 0 mm 3 mps 731 mmHg 95%
    20:00 -16°C° 0 mm 2 mps 732 mmHg 96%
    21:00 -17°C° 0 mm 2 mps 732 mmHg 96%
    22:00 -19°C° 0 mm 2 mps 733 mmHg 97%
    23:00 -20°C° 0 mm 2 mps 733 mmHg 97%

    28 January, Monday

    Time Temperature Precipitation Wind Pressure Humidity
    00:00 -21°C° 0 mm 2 mps 734 mmHg 98%
    01:00 -21°C° 0 mm 2 mps 734 mmHg 98%
    02:00 -23°C° 0 mm 2 mps 734 mmHg 99%
    03:00 -24°C° 0 mm 2 mps 735 mmHg 99%
    04:00 -24°C° 0 mm 2 mps 735 mmHg 99%
    05:00 -24°C° 0 mm 2 mps 736 mmHg 99%
    06:00 -25°C° 0 mm 2 mps 736 mmHg 99%
    07:00 -25°C° 0 mm 2 mps 736 mmHg 99%
    08:00 -22°C° 0 mm 1 mps 737 mmHg 99%
    09:00 -21°C° 0 mm 1 mps 737 mmHg 97%
    10:00 -19°C° 0 mm 1 mps 737 mmHg 95%
    11:00 -17°C° 0 mm 0 mps 738 mmHg 93%
    12:00 -16°C° 0 mm 0 mps 738 mmHg 92%
    13:00 -15°C° 0 mm 0 mps 738 mmHg 91%
    14:00 -14°C° 0 mm 0 mps 738 mmHg 90%
    15:00 -16°C° 0 mm 1 mps 738 mmHg 91%
    16:00 -17°C° 0 mm 1 mps 738 mmHg 92%
    17:00 -20°C° 0 mm 2 mps 738 mmHg 93%
    18:00 -20°C° 0 mm 2 mps 737 mmHg 92%
    19:00 -19°C° 0 mm 2 mps 737 mmHg 91%
    20:00 -21°C° 0 mm 3 mps 737 mmHg 90%
    21:00 -19°C° 0.1 mm 3 mps 737 mmHg 90%
    22:00 -17°C° 0.1 mm 3 mps 737 mmHg 90%
    23:00 -17°C° 0.1 mm 4 mps 737 mmHg 90%

    29 January, Tuesday

    Time Temperature Precipitation Wind Pressure Humidity
    00:00 -16°C° 0.1 mm 4 mps 736 mmHg 91%
    01:00 -15°C° 0.1 mm 4 mps 736 mmHg 93%
    02:00 -14°C° 0.1 mm 4 mps 735 mmHg 94%
    03:00 -12°C° 0.1 mm 4 mps 735 mmHg 94%
    04:00 -11°C° 0.1 mm 4 mps 734 mmHg 94%
    05:00 -11°C° 0.1 mm 4 mps 734 mmHg 94%
    06:00 -10°C° 0.2 mm 4 mps 734 mmHg 94%
    07:00 -10°C° 0.2 mm 5 mps 733 mmHg 93%
    08:00 -8°C° 0.2 mm 5 mps 733 mmHg 93%
    09:00 -7°C° 0.1 mm 5 mps 733 mmHg 93%
    10:00 -6°C° 0.1 mm 5 mps 732 mmHg 92%
    11:00 -4°C° 0.1 mm 5 mps 732 mmHg 92%
    12:00 -4°C° 0.2 mm 5 mps 732 mmHg 92%
    13:00 -4°C° 0.2 mm 5 mps 731 mmHg 92%
    14:00 -2°C° 0.2 mm 5 mps 731 mmHg 92%
    15:00 -2°C° 0.3 mm 5 mps 731 mmHg 92%
    16:00 -2°C° 0.3 mm 5 mps 731 mmHg 93%
    17:00 -1°C° 0.3 mm 5 mps 731 mmHg 93%
    18:00 -1°C° 0.1 mm 5 mps 732 mmHg 94%
    19:00 -1°C° 0.1 mm 4 mps 732 mmHg 95%
    20:00 -1°C° 0.1 mm 4 mps 732 mmHg 96%
    21:00 -1°C° 0 mm 4 mps 733 mmHg 94%
    22:00 -1°C° 0 mm 4 mps 733 mmHg 93%
    23:00 -2°C° 0 mm 4 mps 734 mmHg 92%
    Show more